Location: Wilhelmshaven
(53.5279°N, 8.1063°E)
Time: 22:19:25
(UTC+02:00)

ISS - Pass Details

Date: 05 July 2022
Orbit: 412 x 420 km, 51.6° (Epoch: 19 August)

Event Time Altitude Azimuth Distance (km) Brightness Sun altitude
Exits shadow 03:16:55 15° 219° (SW) 1,208 -2.0 -10.4°
Maximum altitude 03:19:15 36° 158° (SSE) 686 -3.0 -10.2°
Drops below altitude 10° 03:22:23 10° 90° (E) 1,505 -0.6 -10.0°
Sets 03:24:34 0° 82° (E) 2,373 0.6 -9.9°
